This is the latest recevied weather packets stored in our database for station/object SQ5RTW-1. If no packets are shown the sender has not sent any weather packets the latest 10 day(s).
| Time | Temp. | Humidity | Pressure | Rain* | Wind** | Luminosity | Snow |
|---|---|---|---|---|---|---|---|
| 1777602721 | 9.44° C | 54% | 1028.5 hPa | - | - | - | - |
| 1777601820 | 10° C | 52% | 1028.6 hPa | - | - | - | - |
| 1777587227 | 12.78° C | 44% | 1029.3 hPa | - | - | - | - |
| 1777580754 | 11.11° C | 40% | 1029.7 hPa | - | - | - | - |
| 1777579853 | 11.11° C | 38% | 1029.5 hPa | - | - | - | - |
| 1777578952 | 11.11° C | 38% | 1029.6 hPa | - | - | - | - |
| 1777578051 | 12.78° C | 38% | 1029.8 hPa | - | - | - | - |
| 1777578036 | 11.11° C | 38% | 1029.8 hPa | - | - | - | - |
| 1777577131 | 11.11° C | 37% | 1029.7 hPa | - | - | - | - |
| 1777575313 | 13.89° C | 38% | 1029.6 hPa | - | - | - | - |
| 1777572569 | 14.44° C | 39% | 1029.7 hPa | - | - | - | - |
| 1777569842 | 13.33° C | 34% | 1029.7 hPa | - | - | - | - |
| 1777568899 | 14.44° C | 29% | 1029.8 hPa | - | - | - | - |
| 1777562535 | 18.89° C | 25% | 1030.2 hPa | - | - | - | - |
| 1777562510 | 16.67° C | 24% | 1030.1 hPa | - | - | - | - |
| 1777559791 | 17.22° C | 28% | 1030.4 hPa | - | - | - | - |
| 1777559766 | 15° C | 27% | 1030.5 hPa | - | - | - | - |
| 1777556162 | 17.22° C | 23% | 1030.9 hPa | - | - | - | - |
| 1777555261 | 23.33° C | 19% | 1031.1 hPa | - | - | - | - |
| 1777555245 | 23.33° C | 20% | 1031.1 hPa | - | - | - | - |
| 1777555220 | 20.56° C | 20% | 1031 hPa | - | - | - | - |
| 1777554319 | 18.33° C | 20% | 1031 hPa | - | - | - | - |
| 1777552517 | 17.22° C | 19% | 1031.4 hPa | - | - | - | - |
| 1777551616 | 23.33° C | 17% | 1031.7 hPa | - | - | - | - |
| 1777551599 | 23.89° C | 17% | 1031.7 hPa | - | - | - | - |
* Rain since midnight (hover to see other rain measurements)
** Current wind speed in m/s (hover to see current wind gust speed)